Location: Bieujac
(44.5398°N, 0.1549°W)
Time: 08:06:11
(UTC+00:00)

Cosmos 2173 Rocket - Pass Details

Date: 17 November 2019
Orbit: 944 x 1001 km, 83.0° (Epoch: 10 December)

Event Time Altitude Azimuth Distance (km) Brightness Sun altitude
Rises 05:12:35 0° 191° (S) 3,682 7.0 -18.9°
Reaches altitude 10° 05:15:07 10° 193° (SSW) 2,730 6.3 -18.4°
Maximum altitude 05:21:22 75° 278° (W) 1,008 3.9 -17.3°
Drops below altitude 10° 05:27:35 10° 5° (N) 2,708 6.3 -16.3°
Sets 05:30:06 0° 7° (N) 3,651 7.0 -15.8°
